Weather History for Zephyrhills, FL

Change the Weather History Date:

Friday, December 6, 2013

  Actual Average (KPCM) Record (KPCM)
Temperature  
Mean Temperature 70 °F -  
Max Temperature 84 °F 76 °F 88 °F (1972)
Min Temperature 57 °F 51 °F 33 °F (1981)
Cooling Degree Days 6    
Growing Degree Days 20 (Base 50)    
Moisture  
Dew Point 65 °F    
Average Humidity 86    
Maximum Humidity 100    
Minimum Humidity 48    
Precipitation  
Precipitation 0.00 in - - ()
Sea Level Pressure  
Sea Level Pressure 30.16 in    
Wind  
Wind Speed 3 mph (South)    
Max Wind Speed 16 mph    
Max Gust Speed 21 mph    
Visibility 8 miles    
Events Fog    
Averages and records for this station are not official NWS values.
T = Trace of Precipitation, MM = Missing Value Source: NWS Daily Summary

Daily Weather History Graph

Daily Weather History Graph

Search for Another Location

Airport:

Trip Planner

Search our weather history database for the weather conditions in past years. The results will help you decide how hot, cold, wet, or windy it might be!

Date:

Astronomy

Dec. 06, 2013 Rise Set
Actual Time 7:07 AM EST 5:32 PM EST
Civil Twilight 6:41 AM EST 5:58 PM EST
Nautical Twilight 6:12 AM EST 6:27 PM EST
Astronomical Twilight 5:43 AM EST 6:55 PM EST
Moon 10:22 AM EST (12/6) 9:49 PM EST (12/6)
Length of Visible Light 11h 16m
Length of Day
10h 25m
Waxing Crescent, 19% of the Moon is Illuminated
Dec 6
Waxing Crescent
Dec 9
First Quarter
Dec 17
Full
Dec 25
Last Quarter
Jan 1
New

Hourly Weather History & Observations

Time (EST) Temp. Heat Index Dew Point Humidity Pressure Visibility Wind Dir Wind Speed Gust Speed Precip Events Conditions
12:15 AM 66.2 °F - 66.2 °F 100% 30.14 in 10.0 mi ESE 3.5 mph - N/A   Clear
12:35 AM 64.4 °F - 64.4 °F 100% 30.14 in 10.0 mi Calm Calm - N/A   Clear
12:55 AM 64.4 °F - 64.4 °F 100% 30.13 in 10.0 mi Calm Calm - N/A   Clear
1:15 AM 64.4 °F - 64.4 °F 100% 30.13 in 7.0 mi Calm Calm - N/A   Clear
1:35 AM 64.4 °F - 64.4 °F 100% 30.13 in 10.0 mi Calm Calm - N/A   Clear
1:55 AM 62.6 °F - 62.6 °F 100% 30.13 in 7.0 mi Calm Calm - N/A   Clear
2:15 AM 62.6 °F - 62.6 °F 100% 30.13 in 5.0 mi Calm Calm - N/A   Clear
2:35 AM 60.8 °F - 60.8 °F 100% 30.13 in 4.0 mi Calm Calm - N/A   Clear
2:55 AM 60.8 °F - 60.8 °F 100% 30.13 in 0.8 mi Calm Calm - N/A   Mist
3:35 AM 60.8 °F - 60.8 °F 100% 30.14 in 1.0 mi Calm Calm - N/A   Mist
3:55 AM 60.8 °F - 60.8 °F 100% 30.14 in 0.5 mi Calm Calm - N/A Fog Fog
4:15 AM 59.0 °F - 59.0 °F 100% 30.14 in 0.5 mi Calm Calm - N/A Fog Fog
4:35 AM 59.0 °F - 59.0 °F 100% 30.14 in 0.5 mi Calm Calm - N/A Fog Fog
4:55 AM 59.0 °F - 59.0 °F 100% 30.14 in 0.5 mi Calm Calm - N/A Fog Fog
5:15 AM 59.0 °F - 59.0 °F 100% 30.15 in 0.2 mi Calm Calm - N/A Fog Fog
5:35 AM 59.0 °F - 59.0 °F 100% 30.15 in 0.2 mi Calm Calm - N/A Fog Fog
5:55 AM 57.2 °F - 57.2 °F 100% 30.15 in 0.2 mi Calm Calm - N/A Fog Fog
6:15 AM 59.0 °F - 59.0 °F 100% 30.16 in 0.2 mi Calm Calm - N/A Fog Fog
6:35 AM 57.2 °F - 57.2 °F 100% 30.16 in 0.2 mi Calm Calm - N/A Fog Fog
6:55 AM 57.2 °F - 57.2 °F 100% 30.17 in 0.2 mi Calm Calm - N/A Fog Fog
7:15 AM 57.2 °F - 57.2 °F 100% 30.17 in 0.2 mi Calm Calm - N/A Fog Fog
7:35 AM 57.2 °F - 57.2 °F 100% 30.18 in 0.2 mi Calm Calm - N/A Fog Fog
7:55 AM 59.0 °F - 59.0 °F 100% 30.18 in 0.5 mi Calm Calm - N/A Fog Fog
8:15 AM 62.6 °F - 62.6 °F 100% 30.18 in 4.0 mi Calm Calm - N/A   Clear
8:35 AM 64.4 °F - 64.4 °F 100% 30.19 in 10.0 mi SE 3.5 mph - N/A   Clear
8:55 AM 64.4 °F - 64.4 °F 100% 30.18 in 10.0 mi SE 5.8 mph - N/A   Clear
9:15 AM 68.0 °F - 68.0 °F 100% 30.19 in 10.0 mi SE 5.8 mph - N/A   Clear
9:35 AM 69.8 °F - 69.8 °F 100% 30.19 in 10.0 mi SSE 8.1 mph - N/A   Clear
9:55 AM 75.2 °F - 73.4 °F 94% 30.19 in 10.0 mi SSE 9.2 mph - N/A   Clear
10:15 AM 77.0 °F - 73.4 °F 89% 30.19 in 10.0 mi SSE 10.4 mph - N/A   Scattered Clouds
10:35 AM 77.0 °F - 73.4 °F 89% 30.20 in 10.0 mi SSE 9.2 mph - N/A   Scattered Clouds
10:55 AM 78.8 °F - 77.0 °F 94% 30.18 in 10.0 mi SSE 13.8 mph 17.3 mph N/A   Scattered Clouds
11:15 AM 80.6 °F 85.4 °F 73.4 °F 79% 30.18 in 10.0 mi SSE 13.8 mph 18.4 mph N/A   Scattered Clouds
11:35 AM 80.6 °F 83.9 °F 69.8 °F 70% 30.17 in 10.0 mi South 10.4 mph - N/A   Scattered Clouds
11:55 AM 80.6 °F 83.2 °F 68.0 °F 65% 30.16 in 10.0 mi SSE 12.7 mph 19.6 mph N/A   Scattered Clouds
12:15 PM 82.4 °F 85.4 °F 68.0 °F 62% 30.15 in 10.0 mi South 12.7 mph - N/A   Clear
12:35 PM 82.4 °F 84.6 °F 66.2 °F 58% 30.14 in 10.0 mi SSE 16.1 mph 20.7 mph N/A   Scattered Clouds
12:55 PM 82.4 °F 84.6 °F 66.2 °F 58% 30.13 in 10.0 mi SSE 11.5 mph - N/A   Scattered Clouds
1:15 PM 82.4 °F 83.9 °F 64.4 °F 54% 30.13 in 10.0 mi SSE 12.7 mph - N/A   Scattered Clouds
1:35 PM 84.2 °F 85.6 °F 64.4 °F 51% 30.12 in 10.0 mi SSE 9.2 mph - N/A   Scattered Clouds
1:55 PM 84.2 °F 85.0 °F 62.6 °F 48% 30.11 in 10.0 mi South 10.4 mph - N/A   Scattered Clouds
2:15 PM 82.4 °F 83.4 °F 62.6 °F 51% 30.11 in 10.0 mi South 9.2 mph - N/A   Clear
2:35 PM 82.4 °F 83.4 °F 62.6 °F 51% 30.11 in 10.0 mi SSE 8.1 mph - N/A   Clear
2:55 PM 82.4 °F 83.9 °F 64.4 °F 54% 30.11 in 10.0 mi SSE 6.9 mph - N/A   Scattered Clouds
3:15 PM 82.4 °F 83.4 °F 62.6 °F 51% 30.11 in 10.0 mi South 6.9 mph - N/A   Mostly Cloudy
3:35 PM 84.2 °F 85.0 °F 62.6 °F 48% 30.11 in 10.0 mi South 4.6 mph - N/A   Mostly Cloudy
3:55 PM 84.2 °F 85.0 °F 62.6 °F 48% 30.11 in 10.0 mi SSE 6.9 mph - N/A   Scattered Clouds
4:15 PM 82.4 °F 83.4 °F 62.6 °F 51% 30.11 in 10.0 mi SSW 4.6 mph - N/A   Clear
4:35 PM 82.4 °F 83.4 °F 62.6 °F 51% 30.12 in 10.0 mi South 4.6 mph - N/A   Clear
4:55 PM 80.6 °F 81.8 °F 62.6 °F 54% 30.12 in 10.0 mi South 3.5 mph - N/A   Mostly Cloudy
5:15 PM 80.6 °F 82.3 °F 64.4 °F 58% 30.13 in 10.0 mi Calm Calm - N/A   Mostly Cloudy
5:35 PM 78.8 °F - 64.4 °F 61% 30.13 in 10.0 mi WSW 5.8 mph - N/A   Mostly Cloudy
6:55 PM 75.2 °F - 69.8 °F 83% 30.16 in 10.0 mi West 5.8 mph - N/A   Scattered Clouds
7:15 PM 73.4 °F - 68.0 °F 83% 30.17 in 10.0 mi WSW 3.5 mph - N/A   Scattered Clouds
7:35 PM 71.6 °F - 69.8 °F 94% 30.17 in 10.0 mi West 3.5 mph - N/A   Scattered Clouds
7:55 PM 71.6 °F - 69.8 °F 94% 30.17 in 10.0 mi SW 3.5 mph - N/A   Scattered Clouds
8:15 PM 69.8 °F - 69.8 °F 100% 30.17 in 10.0 mi Calm Calm - N/A   Clear
8:35 PM 68.0 °F - 68.0 °F 100% 30.18 in 10.0 mi Calm Calm - N/A   Scattered Clouds
8:55 PM 68.0 °F - 68.0 °F 100% 30.18 in 10.0 mi Calm Calm - N/A   Mostly Cloudy
9:15 PM 68.0 °F - 68.0 °F 100% 30.18 in 10.0 mi Calm Calm - N/A   Mostly Cloudy
9:35 PM 68.0 °F - 68.0 °F 100% 30.19 in 10.0 mi Calm Calm - N/A   Mostly Cloudy
9:55 PM 68.0 °F - 68.0 °F 100% 30.19 in 10.0 mi Calm Calm - N/A   Scattered Clouds
10:15 PM 68.0 °F - 68.0 °F 100% 30.20 in 10.0 mi Calm Calm - N/A   Mostly Cloudy
10:35 PM 68.0 °F - 68.0 °F 100% 30.20 in 10.0 mi Calm Calm - N/A   Mostly Cloudy
10:55 PM 68.0 °F - 68.0 °F 100% 30.20 in 10.0 mi Calm Calm - N/A   Mostly Cloudy
11:15 PM 68.0 °F - 68.0 °F 100% 30.20 in 10.0 mi Calm Calm - N/A   Mostly Cloudy
11:35 PM 68.0 °F - 68.0 °F 100% 30.20 in 10.0 mi Calm Calm - N/A   Mostly Cloudy
11:55 PM 68.0 °F - 68.0 °F 100% 30.20 in 10.0 mi Calm Calm - N/A   Scattered Clouds